Regional Weather Roundup
Issued by NWS

Home | Current Version | Previous Version | Text Only | Print | Product List | Glossary Off
Versions: 1 2 3 4 5 6 7 8 9 10 11 12 13 14 15 16 17 18 19 20 21 22 23 24 25 26 27 28 29 30 31 32 33 34 35 36 37 38 39 40 41 42 43 44 45 46 47 48 49 50

000
ASUS45 KTFX 041319
RWRMT
MONTANA HOURLY WEATHER ROUNDUP
NATIONAL WEATHER SERVICE GREAT FALLS MT
619 AM MST WED MAR 4 2015

NOTE: "FAIR" INDICATES FEW OR NO CLOUDS BELOW 12000 FEET WITH NO
SIGNIFICANT WEATHER AND/OR OBSTRUCTIONS TO VISIBILITY.

* THESE STATIONS ARE NOT UNDER NWS QUALITY CONTROL. THEY DO NOT
   REPORT WEATHER SUCH AS PRECIPITATION OR FOG.

MTZ001>007-043-041400-
WEST OF THE DIVIDE
CITY           SKY/WX    TMP DP  RH WIND       PRES   REMARKS
KALISPELL      CLEAR      7   1  76 CALM      30.20S
MISSOULA       CLEAR     12   9  88 CALM      30.23R
BUTTE          CLEAR      0  -6  75 CALM      30.08R
MULLAN PASS    CLEAR     10   3  73 S6        30.02S
* ANACONDA     CLEAR      7   1  76 S9         N/A   WCI  -6
* ESSEX        N/A        3  -4  72 E2G9       N/A
* EUREKA APT   CLEAR      7   1  76 CALM      30.25R
* HAMILTON APT CLEAR     16   9  74 S12       30.19R WCI   3
* LIBBY APT    CLEAR      7   3  83 CALM      30.24R
* LINCOLN      N/A       -7 -13  75 NE1        N/A
* LOOKOUT PASS N/A       11   5  77 SE1        N/A
* POLSON       N/A       11   5  77 N/A        N/A
* RONAN APT    CLEAR     12   7  80 N/A        N/A
* SEELEY LAKE  N/A       -6 -11  78 N/A        N/A
* THOMP F APT  CLEAR      7  -3  63 N/A        N/A
$$

MTZ008-052>055-041400-
SOUTHWEST MONTANA
CITY           SKY/WX    TMP DP  RH WIND       PRES   REMARKS
BOZEMAN        PTCLDY     0  -6  75 CALM      30.14S
DILLON         CLEAR      0  -6  75 CALM      30.08R
* W YELLOWSTON PTCLDY   -15 -23  66 N/A        N/A
* THREE FORKS  CLEAR      0  -6  75 N/A        N/A
* BOULDER HILL N/A        6  -1  73 SW7        N/A   WCI  -6
* MONIDA PASS  N/A        1  -4  79 NW8        N/A   WCI -13
* RAYNOLDS PAS N/A       -3  -4  95 VRB4       N/A
* WHITEHALL    N/A        4  -3  72 NE4        N/A
* WISE RIVER   N/A        3  -3  76 S1         N/A
$$

MTZ009>010-012-014-046-048-049-054-041400-
EAST SLOPES AND CENTRAL MONTANA
CITY           SKY/WX    TMP DP  RH WIND       PRES   REMARKS
CUT BANK       CLEAR      0  -8  68 NW3       30.09F
GREAT FALLS    CLEAR      3  -2  79 SW13      30.13F WCI -14
HELENA         PTCLDY     7  -2  66 CALM      30.18R
MALMSTROM AFB  CLEAR      1  -2  87 SW3       30.16F
* CONRAD       CLEAR      5  -4  66 SW7        N/A   WCI  -7
* DEARBORN     N/A       -6 -10  82 S1         N/A
* EAST GLACIER N/A        0  -8  68 NW2G8      N/A
* MONARCH      N/A       -2  -7  79 S11        N/A   WCI -19
* PENDROY      N/A        4  -6  63 SW9        N/A   WCI -10
* ROGERS PASS  N/A        5  -3  69 W4G9       N/A
* SWEET GRASS  N/A        5 -10  49 SW9        N/A   WCI  -9
* WHITE SULPH  N/A       -3 -10  71 NE4        N/A
$$

MTZ011-013-016-021-035-040-045-047-050-051-041400-
NORTH CENTRAL MONTANA
CITY           SKY/WX    TMP DP  RH WIND       PRES   REMARKS
HAVRE          CLEAR      0  -6  75 SW9       30.22S WCI -15
LEWISTOWN      CLEAR     -6 -11  78 SW13      30.12S WCI -26
* N BAR RANCH  CLEAR      3  -6  66 NW18G24   30.06S WCI -17
* CHINOOK      CLEAR      0  -8  68 W3        30.24S
* FORT BENTON  CLEAR      7  -2  66 CALM      30.21F
* CHESTER      N/A        0  -9  65 W1         N/A
* DENTON       N/A        0  -8  68 S8         N/A   WCI -14
* GEYSER       N/A        3  -3  76 SW8        N/A   WCI -10
* JUDITH GAP   N/A       -3  -8  79 W4         N/A
* LOMA         N/A        4  -3  72 W3         N/A
$$

MTZ017>020-022>027-061-062-041400-
NORTHEAST MONTANA
CITY           SKY/WX    TMP DP  RH WIND       PRES   REMARKS
GLASGOW        CLEAR     -4 -11  71 NW7       30.24R WCI -18
JORDAN         CLEAR     -2  -8  75 W5        30.21S WCI -13
SIDNEY         CLEAR     -6 -11  78 CALM      30.29R
WOLF POINT     CLEAR     -4 -11  71 NW8       30.28R WCI -19
* BEAVER HILL  N/A       -6 -12  75 NW10       N/A   WCI -23
* CIRCLE       N/A       -3  -9  75 N/A        N/A
* LINDSAY DVD  N/A       -7 -11  82 NW9        N/A   WCI -24
* NAVAJO       N/A      -14 -19  78 NW7        N/A   WCI -30
* PLENTYWOOD A CLEAR    -15 -20  77 NW8       30.23R WCI -32
* POPLAR APT   CLEAR     -8 -13  78 CALM      30.29R
* SACO         N/A       -7 -11  82 W6         N/A   WCI -20
$$

MTZ028>042-056>058-041400-
SOUTHCENTRAL AND SOUTHEAST MONTANA
CITY           SKY/WX    TMP DP  RH WIND       PRES   REMARKS
BAKER          CLOUDY    -2  -9  72 NW16      30.16R WCI -23
BILLINGS       MOCLDY     7  -4  60 SW9       30.16S WCI  -6
LIVINGSTON     CLEAR      0  -8  68 NW12      30.10S WCI -17
MILES CITY     PTCLDY     0  -6  75 N8        30.23R WCI -14
* BIG TIMBER A CLEAR      3  -6  66 CALM      30.11S
* FORSYTH APT  CLEAR      5  -2  72 NW6       30.23R WCI  -6
* LAUREL APT   PTCLDY     3  -8  60 SW6        N/A   WCI  -8
* ROUNDUP APT  CLEAR      3  -9  57 N/A        N/A
* ALZADA       N/A        5   0  80 W8         N/A   WCI  -8
* HYSHAM       N/A        4  -4  69 W5         N/A   WCI  -6
* REED POINT   N/A       -2  -5  87 N/A        N/A
* ROSCOE HILL  N/A        2 -10  57 SW6        N/A   WCI  -9
$$

REGIONAL REPORTS...DAKOTAS
CITY           SKY/WX    TMP DP  RH WIND       PRES   REMARKS
WILLISTON      CLEAR     -9 -17  67 N13       30.25R WCI -30
DICKINSON      CLEAR     -6 -13  71 NW10      30.13R WCI -23
BEACH          CLEAR     -4  -9  79 NW13G18   30.17R WCI -23
CROSBY         CLEAR    -13 -20  70 NW15      30.24R WCI -36
TIOGA          CLEAR    -13 -18  78 NW14G20   30.21R WCI -35
WATFORD CITY   CLEAR     -8 -15  71 NW7       30.21R WCI -23
BISMARCK       CLEAR     -4 -13  65 NW14G25   30.23R WCI -24
GRAND FORKS    PTCLDY    -9 -17  67 W8        30.18R WCI -25
FARGO          CLEAR     -4 -13  65 NW10      30.18R WCI -21
BUFFALO SD     PTCLDY     0  -6  75 NW13      30.05R WCI -18
RAPID CITY     PTCLDY     3  -4  72 N12       30.12R WCI -14
$$

REGIONAL REPORTS...WYOMING/IDAHO/WASHINGTON
CITY           SKY/WX    TMP DP  RH WIND       PRES   REMARKS
GILLETTE       PTCLDY    -2  -9  72 W12       30.09R WCI -20
SHERIDAN       MOCLDY     5  -2  72 N3        30.12S
CODY           PTCLDY     1  -4  79 S5        30.07R WCI  -9
YELLOWSTONE LA PTCLDY   -20 -27  69 CALM      29.97R
SALMON         PTCLDY    12   7  80 CALM      30.19R
MULLAN PASS    CLEAR     10   3  73 S6        30.02S
SAND POINT     CLEAR     14  14 100 CALM      30.24R
SPOKANE        FAIR      19  10  68 SE6       30.20R WCI  11
$$

REGIONAL REPORTS...ALBERTA
CITY           SKY/WX    TMP DP  RH WIND       PRES   REMARKS
CALGARY        FAIR       3  -6  66 SW6       30.04F WCI  -8
LETHBRIDGE     N/A        1  -6  72 SW9       30.13S WCI -14
MEDICINE HAT   N/A       -6  -9  87 SE5       30.22F WCI -18
EDMONTON       FAIR      -6 -13  71 S14       30.10F WCI -26
WATERTON GATE  N/A       16 N/A N/A SW15G22    N/A   WCI   1
CARDSTON       N/A       -9 -13  82 S3         N/A
MILK RIVER     N/A       -8 -15  71 W5         N/A   WCI -20
$$

REGIONAL REPORTS...SASKATCHEWAN
CITY           SKY/WX    TMP DP  RH WIND       PRES   REMARKS
SWIFT CURRENT  CLEAR    -15 -20  77 W6        30.18S WCI -30
MOOSE JAW      N/A      -22 -29  69 W9        30.29S WCI -42
REGINA         N/A      -22 -27  77 W10       30.27R WCI -43
VAL MARIE      N/A       -9 -13  82 N2         N/A
ASSINIBOIA     N/A      -20 -26  73 W5         N/A   WCI -34
CORONACH       N/A      -15 -20  77 NW7        N/A   WCI -31

$$



USA.gov is the U.S. government's official web portal to all federal, state and local government web resources and services.